Weather History for KCUT - June, 2013

Change the Weather History Date:

Thursday, June 20, 2013

  Actual Average Record
Temperature  
Mean Temperature 66 °F 60 °F  
Max Temperature 78 °F 73 °F 90 °F (1988)
Min Temperature 54 °F 48 °F 30 °F (1946)
Degree Days  
Heating Degree Days 0 6  
Month to date heating degree days 165 177  
Since 1 June heating degree days 165 177  
Since 1 July heating degree days 8245 8346  
Cooling Degree Days 1 1  
Month to date cooling degree days 1 8  
Year to date cooling degree days 3 9  
Since 1 June cooling degree days 1 8  
Growing Degree Days 16 (Base 50)    
Moisture  
Dew Point 45 °F    
Average Humidity 52    
Maximum Humidity 86    
Minimum Humidity 17    
Precipitation  
Precipitation 0.00 in 0.09 in 1.18 in (1967)
Month to date precipitation 1.25 2.26  
Year to date precipitation 7.78 9.37  
Sea Level Pressure  
Sea Level Pressure 29.75 in    
Wind  
Wind Speed 6 mph (East)    
Max Wind Speed 16 mph    
Max Gust Speed 22 mph    
Visibility 10 miles    
Events      
T = Trace of Precipitation, MM = Missing Value Source: NWS Daily Summary

Daily Weather History Graph

Daily Weather History Graph

Search for Another Location

Airport or City:

Trip Planner

Search our weather history database for the weather conditions in past years. The results will help you decide how hot, cold, wet, or windy it might be!

Date:

Astronomy

Jun. 20, 2013 Rise Set
Actual Time 5:12 AM MDT 8:39 PM MDT
Civil Twilight 4:36 AM MDT 9:15 PM MDT
Nautical Twilight 3:49 AM MDT 10:03 PM MDT
Astronomical Twilight 2:49 AM MDT 11:03 PM MDT
Moon 5:41 PM MDT (6/20) 2:45 AM MDT (6/20)
Length of Visible Light 16h 39m
Length of Day
15h 27m
Waxing Gibbous, 89% of the Moon is Illuminated
Jun 20
Waxing Gibbous
Jun 23
Full
Jun 29
Last Quarter
Jul 8
New
Jul 15
First Quarter

Hourly Weather History & Observations

Time (MDT) Temp. Dew Point Humidity Pressure Visibility Wind Dir Wind Speed Gust Speed Precip Events Conditions
12:53 AM 66.0 °F 54.0 °F 65% 29.63 in 10.0 mi Variable 3.5 mph - N/A   Partly Cloudy
1:53 AM 66.0 °F 55.9 °F 70% 29.64 in 10.0 mi South 5.8 mph - N/A   Mostly Cloudy
2:53 AM 64.0 °F 54.0 °F 70% 29.65 in 10.0 mi South 3.5 mph - N/A   Clear
3:53 AM 57.9 °F 53.1 °F 84% 29.67 in 10.0 mi Calm Calm - N/A   Clear
4:53 AM 57.9 °F 53.1 °F 84% 29.68 in 10.0 mi Calm Calm - N/A   Clear
5:53 AM 55.0 °F 52.0 °F 89% 29.72 in 10.0 mi North 8.1 mph - N/A   Clear
6:53 AM 62.1 °F 54.0 °F 75% 29.70 in 10.0 mi North 4.6 mph - N/A   Clear
7:53 AM 64.9 °F 46.9 °F 52% 29.70 in 10.0 mi WNW 5.8 mph - N/A   Clear
8:53 AM 69.1 °F 48.9 °F 49% 29.72 in 10.0 mi Calm Calm - N/A   Clear
9:53 AM 73.0 °F 39.9 °F 30% 29.73 in 10.0 mi SSW 8.1 mph - N/A   Clear
10:53 AM 75.0 °F 37.0 °F 25% 29.74 in 10.0 mi Calm Calm - N/A   Clear
11:53 AM 78.1 °F 30.0 °F 17% 29.74 in 10.0 mi WSW 5.8 mph - N/A   Clear
12:53 PM 73.0 °F 46.0 °F 38% 29.75 in 10.0 mi East 12.7 mph 17.3 mph N/A   Mostly Cloudy
1:53 PM 75.0 °F 43.0 °F 32% 29.75 in 10.0 mi East 9.2 mph - N/A   Mostly Cloudy
2:53 PM 73.0 °F 37.9 °F 28% 29.77 in 10.0 mi East 9.2 mph - N/A   Mostly Cloudy
3:53 PM 75.0 °F 39.0 °F 27% 29.78 in 10.0 mi ESE 9.2 mph - N/A   Scattered Clouds
4:53 PM 75.0 °F 39.0 °F 27% 29.78 in 10.0 mi East 9.2 mph 18.4 mph N/A   Clear
5:53 PM 73.0 °F 37.9 °F 28% 29.81 in 10.0 mi East 10.4 mph - N/A   Clear
6:53 PM 70.0 °F 37.9 °F 31% 29.81 in 10.0 mi East 11.5 mph - N/A   Clear
7:53 PM 66.9 °F 43.0 °F 42% 29.82 in 10.0 mi East 6.9 mph - N/A   Clear
8:53 PM 64.0 °F 43.0 °F 46% 29.83 in 10.0 mi NE 3.5 mph - N/A   Clear
9:53 PM 62.1 °F 44.1 °F 52% 29.83 in 10.0 mi NE 5.8 mph - N/A   Clear
10:53 PM 61.0 °F 46.9 °F 60% 29.83 in 10.0 mi NE 8.1 mph - N/A   Clear
11:53 PM 60.1 °F 51.1 °F 72% 29.83 in 10.0 mi NE 3.5 mph - N/A   Clear